Regional Weather Roundup
Issued by NWS

Home | Current Version | Previous Version | Graphics & Text | Print | Product List | Glossary On
Versions: 1 2 3 4 5 6 7 8 9 10 11 12 13 14 15 16 17 18 19 20 21 22 23 24 25 26 27 28 29 30 31 32 33 34 35 36 37 38 39 40 41 42 43 44 45 46 47 48 49 50
000
ASUS43 KTOP 280759
RWRKS

WEATHER ROUNDUP FOR KANSAS
NATIONAL WEATHER SERVICE GOODLAND KS
300 AM CDT TUE JUL 28 2015

NOTE:  "FAIR" INDICATES FEW OR NO CLOUDS BELOW 12,000 FEET WITH NO
SIGNIFICANT WEATHER AND/OR OBSTRUCTIONS TO VISIBILITY.

KSZ001>006-013>018-027>032-041>047-280900-
NORTHWEST KANSAS

CITY           SKY/WX    TMP DP  RH WIND       PRES   REMARKS
GOODLAND       CLEAR     75  64  68 S16       29.81F
HAYS           CLEAR     81  64  57 S18       29.81S
HILL CITY      CLEAR     82  68  62 S16G24    29.78F
RUSSELL        CLEAR     80  67  64 S15       29.80F
$$

KSZ061>065-074>080-084>089-280900-
SOUTHWEST KANSAS

CITY           SKY/WX    TMP DP  RH WIND       PRES   REMARKS
DODGE CITY     CLEAR     77  65  66 S14G22    29.87F
ELKHART          N/A     78  59  52 S15         N/A
GARDEN CITY    CLEAR     78  66  66 S18       29.86F
GREAT BEND     CLEAR     81  64  57 S21       29.83S
LIBERAL        CLEAR     81  63  54 S17       29.89F
$$

KSZ066>073-081>083-090>101-280900-
SOUTHEAST KANSAS

CITY           SKY/WX    TMP DP  RH WIND       PRES   REMARKS
CHANUTE        CLEAR     79  75  87 S7        29.88F
COFFEYVILLE    CLEAR     79  77  94 S6        29.88F
HUTCHINSON     CLEAR     82  68  62 S14       29.86S
NEWTON         CLEAR     81  66  61 S12       29.90S
PARSONS        CLEAR     81  77  88 S5        29.89F
WICHITA INTL   CLEAR     81  70  69 S12       29.87S
WICHITA JABRA  CLEAR     81  71  71 S12       29.87S
WINFIELD       CLEAR     80  72  76 S12       29.88F
$$

KSZ007>012-019>026-033>040-048>060-102>105-280900-
NORTHEAST KANSAS

CITY           SKY/WX    TMP DP  RH WIND       PRES   REMARKS
CONCORDIA      CLEAR     81  67  62 S18G26    29.80S
EMPORIA        CLEAR     77  73  87 S13       29.87F
LAWRENCE       CLEAR     79  73  82 S7        29.86F
MANHATTAN      CLEAR     82  72  71 S9        29.83F
OLATHE IND     CLEAR     79  74  84 S8        29.89F
OLATHE EXE     CLEAR     77  73  87 S6        29.89S
SALINA         CLEAR     82  68  62 S15       29.81F
TOPEKA BILLARD CLEAR     81  73  76 S7        29.85F
TOPEKA FORBES  CLEAR     80  73  79 S7        29.86F
$$



USA.gov is the U.S. government's official web portal to all federal, state and local government web resources and services.